| time (UTC) | temp F | wind direction | speed MPH | gust MPH | rain 1hr in | rain 24hr in | rain mn in | humidity % | barometer mb |
| 20260506024018 | 64 | 360 | 1.0 | 9.0 | 0.00 | 0.02 | 0.02 | 74 | 1008.3 |
| 20260506023518 | 64 | 360 | 1.0 | 9.0 | 0.00 | 0.02 | 0.02 | 74 | 1008.3 |
| 20260506023100 | 64 | 360 | 1.0 | 9.0 | 0.00 | 0.02 | 0.02 | 74 | 1008.1 |
| 20260506022517 | 64 | 0 | 0.0 | 4.0 | 0.00 | 0.02 | 0.02 | 67 | 1008.2 |
| 20260506022018 | 64 | 0 | 1.0 | 4.0 | 0.00 | 0.02 | 0.02 | 75 | 1008.2 |
| 20260506021537 | 64 | 0 | 1.0 | 3.0 | 0.00 | 0.02 | 0.02 | 76 | 1008.2 |
| 20260506021018 | 64 | 360 | 0.0 | 3.0 | 0.00 | 0.02 | 0.02 | 77 | 1008.2 |
| 20260506020522 | 64 | 0 | 0.0 | 3.0 | 0.00 | 0.02 | 0.02 | 77 | 1008.1 |
| 20260506020036 | 64 | 360 | 1.0 | 4.0 | 0.00 | 0.02 | 0.02 | 77 | 1008.1 |
| 20260506015524 | 64 | 0 | 0.0 | 4.0 | 0.00 | 0.02 | 0.02 | 77 | 1008.1 |
| 20260506015019 | 64 | 360 | 1.0 | 4.0 | 0.00 | 0.02 | 0.02 | 69 | 1008.1 |
| 20260506014537 | 63 | 360 | 0.0 | 5.0 | 0.00 | 0.02 | 0.02 | 79 | 1008.1 |
| 20260506014022 | 63 | 0 | 1.0 | 5.0 | 0.00 | 0.02 | 0.02 | 81 | 1008.0 |
| 20260506013522 | 63 | 0 | 0.0 | 4.0 | 0.00 | 0.02 | 0.02 | 83 | 1008.1 |
| 20260506013040 | 63 | 0 | 0.0 | 2.0 | 0.00 | 0.02 | 0.02 | 83 | 1008.0 |
| 20260506012518 | 63 | 0 | 0.0 | 5.0 | 0.00 | 0.02 | 0.02 | 85 | 1008.0 |
| 20260506012017 | 63 | 0 | 0.0 | 5.0 | 0.00 | 0.02 | 0.02 | 85 | 1008.0 |
| 20260506011532 | 63 | 360 | 0.0 | 5.0 | 0.00 | 0.02 | 0.02 | 76 | 1007.9 |
| 20260506011022 | 63 | 360 | 0.0 | 4.0 | 0.00 | 0.02 | 0.02 | 88 | 1007.9 |
| 20260506010518 | 63 | 360 | 1.0 | 4.0 | 0.00 | 0.02 | 0.02 | 88 | 1007.8 |
| 20260506010032 | 63 | 0 | 0.0 | 1.0 | 0.00 | 0.02 | 0.02 | 92 | 1007.8 |
| 20260506005518 | 64 | 0 | 0.0 | 2.0 | 0.00 | 0.02 | 0.02 | 91 | 1007.8 |
| 20260506005017 | 64 | 0 | 0.0 | 2.0 | 0.01 | 0.02 | 0.02 | 90 | 1007.8 |
| 20260506004559 | 64 | 360 | 0.0 | 3.0 | 0.02 | 0.02 | 0.02 | 91 | 1007.9 |
| 20260506004018 | 64 | 360 | 1.0 | 3.0 | 0.02 | 0.02 | 0.02 | 90 | 1007.9 |
| 20260506003520 | 64 | 360 | 0.0 | 3.0 | 0.02 | 0.02 | 0.02 | 90 | 1007.8 |
| 20260506003045 | 65 | 0 | 0.0 | 1.0 | 0.02 | 0.02 | 0.02 | 89 | 1007.8 |
| 20260506002518 | 65 | 0 | 0.0 | 1.0 | 0.02 | 0.02 | 0.02 | 88 | 1007.6 |
| 20260506002021 | 66 | 360 | 0.0 | 2.0 | 0.02 | 0.02 | 0.02 | 88 | 1007.7 |
| 20260506001538 | 66 | 360 | 0.0 | 2.0 | 0.02 | 0.02 | 0.02 | 87 | 1007.7 |
| 20260506001018 | 67 | 360 | 0.0 | 2.0 | 0.02 | 0.02 | 0.02 | 76 | 1007.7 |
| 20260506000521 | 68 | 0 | 0.0 | 3.0 | 0.02 | 0.02 | 0.02 | 74 | 1007.5 |
| 20260506000034 | 69 | 360 | 0.0 | 3.0 | 0.02 | 0.02 | 0.02 | 80 | 1007.5 |
| 20260505235521 | 70 | 360 | 1.0 | 5.0 | 0.02 | 0.02 | 0.02 | 74 | 1007.3 |
| 20260505235021 | 71 | 360 | 1.0 | 12.0 | 0.01 | 0.01 | 0.01 | 67 | 1007.1 |
| 20260505234556 | 72 | 360 | 4.0 | 12.0 | 0.00 | 0.00 | 0.00 | 62 | 1007.4 |
| 20260505234029 | 72 | 360 | 3.0 | 10.0 | 0.00 | 0.00 | 0.00 | 60 | 1007.1 |
| 20260505233525 | 72 | 360 | 3.0 | 10.0 | 0.00 | 0.00 | 0.00 | 59 | 1006.7 |
| 20260505233038 | 72 | 360 | 2.0 | 11.0 | 0.00 | 0.00 | 0.00 | 58 | 1006.0 |
| 20260505232521 | 73 | 360 | 4.0 | 11.0 | 0.00 | 0.00 | 0.00 | 58 | 1005.5 |
| 20260505232021 | 73 | 360 | 4.0 | 11.0 | 0.00 | 0.00 | 0.00 | 57 | 1005.4 |
| 20260505231535 | 73 | 360 | 2.0 | 13.0 | 0.00 | 0.00 | 0.00 | 57 | 1005.3 |
| 20260505231020 | 73 | 360 | 3.0 | 13.0 | 0.00 | 0.00 | 0.00 | 56 | 1005.3 |
| 20260505230520 | 74 | 360 | 3.0 | 11.0 | 0.00 | 0.00 | 0.00 | 56 | 1005.2 |
| 20260505230042 | 74 | 360 | 2.0 | 13.0 | 0.00 | 0.00 | 0.00 | 56 | 1005.3 |
| 20260505225524 | 74 | 360 | 2.0 | 13.0 | 0.00 | 0.00 | 0.00 | 56 | 1005.1 |
| 20260505225021 | 74 | 360 | 1.0 | 15.0 | 0.00 | 0.00 | 0.00 | 55 | 1005.1 |
| 20260505224539 | 74 | 360 | 5.0 | 15.0 | 0.00 | 0.00 | 0.00 | 55 | 1005.1 |
| 20260505224017 | 75 | 0 | 6.0 | 15.0 | 0.00 | 0.00 | 0.00 | 54 | 1004.9 |
| 20260505223517 | 75 | 360 | 3.0 | 10.0 | 0.00 | 0.00 | 0.00 | 54 | 1004.9 |
| 20260505223036 | 75 | 360 | 3.0 | 25.0 | 0.00 | 0.00 | 0.00 | 54 | 1004.8 |
| 20260505222524 | 75 | 360 | 3.0 | 25.0 | 0.00 | 0.00 | 0.00 | 54 | 1004.7 |
| 20260505222021 | 76 | 360 | 2.0 | 16.0 | 0.00 | 0.00 | 0.00 | 54 | 1004.7 |
| 20260505221606 | 76 | 360 | 3.0 | 20.0 | 0.00 | 0.00 | 0.00 | 53 | 1004.6 |
| 20260505221021 | 76 | 360 | 5.0 | 20.0 | 0.00 | 0.00 | 0.00 | 53 | 1004.6 |
| 20260505220520 | 76 | 360 | 6.0 | 20.0 | 0.00 | 0.00 | 0.00 | 53 | 1004.5 |
| 20260505220051 | 77 | 360 | 4.0 | 19.0 | 0.00 | 0.00 | 0.00 | 53 | 1004.6 |
| 20260505215520 | 77 | 360 | 5.0 | 19.0 | 0.00 | 0.00 | 0.00 | 53 | 1004.6 |
| 20260505215021 | 77 | 360 | 2.0 | 16.0 | 0.00 | 0.00 | 0.00 | 53 | 1004.6 |
| 20260505214539 | 77 | 360 | 4.0 | 16.0 | 0.00 | 0.00 | 0.00 | 52 | 1004.5 |
| 20260505214021 | 77 | 360 | 4.0 | 21.0 | 0.00 | 0.00 | 0.00 | 52 | 1004.4 |
| 20260505213524 | 78 | 360 | 5.0 | 21.0 | 0.00 | 0.00 | 0.00 | 52 | 1004.1 |
| 20260505213035 | 78 | 360 | 5.0 | 15.0 | 0.00 | 0.00 | 0.00 | 51 | 1004.2 |
| 20260505212521 | 79 | 360 | 5.0 | 18.0 | 0.00 | 0.00 | 0.00 | 50 | 1003.9 |
| 20260505212021 | 79 | 360 | 3.0 | 18.0 | 0.00 | 0.00 | 0.00 | 51 | 1003.8 |
| 20260505211535 | 79 | 360 | 4.0 | 23.0 | 0.00 | 0.00 | 0.00 | 50 | 1003.7 |
| 20260505211021 | 79 | 360 | 4.0 | 23.0 | 0.00 | 0.00 | 0.00 | 50 | 1003.9 |
| 20260505210518 | 79 | 360 | 6.0 | 16.0 | 0.00 | 0.00 | 0.00 | 49 | 1003.9 |
| 20260505210034 | 80 | 360 | 5.0 | 15.0 | 0.00 | 0.00 | 0.00 | 49 | 1004.0 |
| 20260505205523 | 80 | 360 | 5.0 | 15.0 | 0.00 | 0.00 | 0.00 | 48 | 1003.9 |
| 20260505205020 | 80 | 360 | 3.0 | 16.0 | 0.00 | 0.00 | 0.00 | 49 | 1003.7 |
| 20260505204536 | 80 | 360 | 4.0 | 16.0 | 0.00 | 0.00 | 0.00 | 49 | 1003.8 |
| 20260505204020 | 80 | 360 | 4.0 | 15.0 | 0.00 | 0.00 | 0.00 | 49 | 1003.8 |
| 20260505203520 | 80 | 360 | 7.0 | 15.0 | 0.00 | 0.00 | 0.00 | 49 | 1003.8 |
| 20260505203036 | 81 | 360 | 5.0 | 15.0 | 0.00 | 0.00 | 0.00 | 47 | 1003.8 |
| 20260505202521 | 83 | 360 | 5.0 | 17.0 | 0.00 | 0.00 | 0.00 | 46 | 1003.7 |
| 20260505202018 | 83 | 360 | 2.0 | 17.0 | 0.00 | 0.00 | 0.00 | 45 | 1003.9 |
| 20260505201536 | 83 | 360 | 4.0 | 15.0 | 0.00 | 0.00 | 0.00 | 41 | 1004.0 |
| 20260505201021 | 82 | 360 | 3.0 | 17.0 | 0.00 | 0.00 | 0.00 | 39 | 1004.0 |
| 20260505200521 | 82 | 360 | 4.0 | 17.0 | 0.00 | 0.00 | 0.00 | 39 | 1004.0 |
| 20260505200035 | 82 | 360 | 8.0 | 18.0 | 0.00 | 0.00 | 0.00 | 38 | 1003.9 |
| 20260505195521 | 82 | 360 | 4.0 | 18.0 | 0.00 | 0.00 | 0.00 | 38 | 1004.1 |
| 20260505195021 | 83 | 360 | 3.0 | 15.0 | 0.00 | 0.00 | 0.00 | 38 | 1004.1 |
| 20260505194537 | 83 | 360 | 5.0 | 16.0 | 0.00 | 0.00 | 0.00 | 37 | 1003.9 |
| 20260505194021 | 84 | 360 | 6.0 | 16.0 | 0.00 | 0.00 | 0.00 | 36 | 1004.0 |
| 20260505193521 | 84 | 360 | 6.0 | 16.0 | 0.00 | 0.00 | 0.00 | 37 | 1004.0 |
| 20260505193040 | 84 | 360 | 5.0 | 18.0 | 0.00 | 0.00 | 0.00 | 37 | 1004.0 |
| 20260505192517 | 83 | 360 | 4.0 | 20.0 | 0.00 | 0.00 | 0.00 | 37 | 1004.0 |
| 20260505192020 | 83 | 360 | 5.0 | 24.0 | 0.00 | 0.00 | 0.00 | 38 | 1004.1 |
| 20260505191549 | 82 | 360 | 7.0 | 24.0 | 0.00 | 0.00 | 0.00 | 38 | 1004.3 |
| 20260505191027 | 81 | 360 | 3.0 | 14.0 | 0.00 | 0.00 | 0.00 | 48 | 1004.3 |
| 20260505190521 | 81 | 360 | 3.0 | 16.0 | 0.00 | 0.00 | 0.00 | 49 | 1004.3 |
| 20260505190037 | 81 | 360 | 2.0 | 16.0 | 0.00 | 0.00 | 0.00 | 39 | 1004.3 |
| 20260505185518 | 81 | 360 | 4.0 | 13.0 | 0.00 | 0.00 | 0.00 | 48 | 1004.5 |
| 20260505185021 | 81 | 360 | 2.0 | 14.0 | 0.00 | 0.00 | 0.00 | 49 | 1004.4 |
| 20260505184534 | 80 | 360 | 3.0 | 14.0 | 0.00 | 0.00 | 0.00 | 50 | 1004.3 |
| 20260505184021 | 80 | 360 | 4.0 | 14.0 | 0.00 | 0.00 | 0.00 | 49 | 1004.4 |
| 20260505183521 | 80 | 360 | 4.0 | 11.0 | 0.00 | 0.00 | 0.00 | 50 | 1004.7 |
| 20260505183036 | 80 | 360 | 4.0 | 18.0 | 0.00 | 0.00 | 0.00 | 49 | 1004.9 |
| 20260505182522 | 79 | 360 | 3.0 | 18.0 | 0.00 | 0.00 | 0.00 | 41 | 1004.8 |
| 20260505182021 | 79 | 360 | 2.0 | 13.0 | 0.00 | 0.00 | 0.00 | 51 | 1004.7 |
| 20260505181535 | 79 | 360 | 5.0 | 15.0 | 0.00 | 0.00 | 0.00 | 49 | 1004.9 |
| 20260505181021 | 79 | 360 | 3.0 | 15.0 | 0.00 | 0.00 | 0.00 | 49 | 1004.9 |
| 20260505180520 | 79 | 360 | 5.0 | 13.0 | 0.00 | 0.00 | 0.00 | 48 | 1005.0 |
| 20260505180047 | 79 | 360 | 3.0 | 16.0 | 0.00 | 0.00 | 0.00 | 48 | 1005.1 |
| 20260505175518 | 80 | 360 | 5.0 | 16.0 | 0.00 | 0.00 | 0.00 | 39 | 1005.2 |
| 20260505175018 | 80 | 360 | 4.0 | 13.0 | 0.00 | 0.00 | 0.00 | 48 | 1005.3 |
| 20260505174546 | 80 | 360 | 4.0 | 22.0 | 0.00 | 0.00 | 0.00 | 48 | 1005.3 |
| 20260505174018 | 80 | 360 | 6.0 | 22.0 | 0.00 | 0.00 | 0.00 | 49 | 1005.3 |
| 20260505173518 | 80 | 360 | 2.0 | 16.0 | 0.00 | 0.00 | 0.00 | 49 | 1005.3 |
| 20260505173035 | 79 | 0 | 3.0 | 16.0 | 0.00 | 0.00 | 0.00 | 50 | 1005.4 |
| 20260505172517 | 79 | 360 | 3.0 | 16.0 | 0.00 | 0.00 | 0.00 | 52 | 1005.5 |
| 20260505172017 | 78 | 360 | 6.0 | 15.0 | 0.00 | 0.00 | 0.00 | 51 | 1005.6 |
| 20260505171535 | 78 | 360 | 4.0 | 15.0 | 0.00 | 0.00 | 0.00 | 52 | 1005.5 |
| 20260505171021 | 77 | 360 | 3.0 | 15.0 | 0.00 | 0.00 | 0.00 | 52 | 1005.7 |
| 20260505170521 | 77 | 360 | 3.0 | 9.0 | 0.00 | 0.00 | 0.00 | 54 | 1005.8 |
| 20260505170041 | 77 | 360 | 3.0 | 12.0 | 0.00 | 0.00 | 0.00 | 54 | 1005.8 |
| 20260505165526 | 77 | 360 | 4.0 | 12.0 | 0.00 | 0.00 | 0.00 | 53 | 1005.9 |
| 20260505165021 | 77 | 360 | 2.0 | 11.0 | 0.00 | 0.00 | 0.00 | 52 | 1005.9 |
| 20260505164534 | 77 | 360 | 2.0 | 11.0 | 0.00 | 0.00 | 0.00 | 53 | 1006.1 |
| 20260505164021 | 77 | 0 | 3.0 | 11.0 | 0.00 | 0.00 | 0.00 | 52 | 1006.1 |
| 20260505163521 | 77 | 360 | 2.0 | 12.0 | 0.00 | 0.00 | 0.00 | 53 | 1006.4 |
| 20260505163040 | 77 | 360 | 4.0 | 12.0 | 0.00 | 0.00 | 0.00 | 52 | 1006.3 |
| 20260505162517 | 77 | 360 | 5.0 | 13.0 | 0.00 | 0.00 | 0.00 | 53 | 1006.4 |
| 20260505162020 | 76 | 360 | 4.0 | 13.0 | 0.00 | 0.00 | 0.00 | 53 | 1006.4 |
| 20260505161535 | 76 | 360 | 5.0 | 14.0 | 0.00 | 0.00 | 0.00 | 54 | 1006.6 |
| 20260505161020 | 76 | 360 | 4.0 | 14.0 | 0.00 | 0.00 | 0.00 | 54 | 1006.8 |
| 20260505160521 | 76 | 360 | 3.0 | 11.0 | 0.00 | 0.00 | 0.00 | 54 | 1006.8 |
| 20260505153046 | 72 | 360 | 5.0 | 12.0 | 0.00 | 0.00 | 0.00 | 57 | 1007.4 |
| 20260505152520 | 72 | 360 | 4.0 | 11.0 | 0.00 | 0.00 | 0.00 | 58 | 1007.5 |
| 20260505152021 | 71 | 360 | 2.0 | 9.0 | 0.00 | 0.00 | 0.00 | 59 | 1007.7 |
| 20260505151534 | 71 | 360 | 3.0 | 11.0 | 0.00 | 0.00 | 0.00 | 60 | 1007.7 |
| 20260505151021 | 70 | 360 | 3.0 | 11.0 | 0.00 | 0.00 | 0.00 | 61 | 1007.8 |
| 20260505150521 | 70 | 360 | 4.0 | 11.0 | 0.00 | 0.00 | 0.00 | 61 | 1007.9 |
| 20260505140521 | 64 | 360 | 1.0 | 8.0 | 0.00 | 0.00 | 0.00 | 71 | 1008.7 |
| 20260505125018 | 56 | 360 | 2.0 | 6.0 | 0.00 | 0.00 | 0.00 | 82 | 1009.1 |
| 20260505124535 | 56 | 360 | 1.0 | 6.0 | 0.00 | 0.00 | 0.00 | 83 | 1009.1 |
| 20260505124019 | 56 | 360 | 1.0 | 6.0 | 0.00 | 0.00 | 0.00 | 83 | 1009.1 |
| 20260505123521 | 55 | 360 | 1.0 | 10.0 | 0.00 | 0.00 | 0.00 | 84 | 1009.1 |
| 20260505123053 | 55 | 360 | 2.0 | 10.0 | 0.00 | 0.00 | 0.00 | 85 | 1009.2 |
| 20260505122518 | 55 | 360 | 2.0 | 10.0 | 0.00 | 0.00 | 0.00 | 85 | 1009.1 |
| 20260505122021 | 54 | 360 | 1.0 | 6.0 | 0.00 | 0.00 | 0.00 | 86 | 1009.0 |
| 20260505121539 | 54 | 360 | 1.0 | 8.0 | 0.00 | 0.00 | 0.00 | 86 | 1009.1 |
| 20260505121021 | 54 | 0 | 2.0 | 9.0 | 0.00 | 0.00 | 0.00 | 87 | 1009.1 |
| 20260505120525 | 53 | 360 | 2.0 | 9.0 | 0.00 | 0.00 | 0.00 | 87 | 1009.2 |
| 20260505120035 | 53 | 0 | 1.0 | 6.0 | 0.00 | 0.00 | 0.00 | 88 | 1009.3 |
| 20260505115521 | 53 | 360 | 1.0 | 8.0 | 0.00 | 0.00 | 0.00 | 88 | 1009.4 |
| 20260505115020 | 52 | 360 | 3.0 | 8.0 | 0.00 | 0.00 | 0.00 | 89 | 1009.4 |
| 20260505114543 | 52 | 360 | 2.0 | 8.0 | 0.00 | 0.00 | 0.00 | 89 | 1009.6 |
| 20260505114021 | 51 | 360 | 1.0 | 8.0 | 0.00 | 0.00 | 0.00 | 90 | 1009.6 |
| 20260505113520 | 51 | 360 | 2.0 | 8.0 | 0.00 | 0.00 | 0.00 | 91 | 1009.4 |
| 20260505113039 | 50 | 360 | 0.0 | 3.0 | 0.00 | 0.00 | 0.00 | 92 | 1009.4 |
| 20260505112521 | 50 | 360 | 1.0 | 3.0 | 0.00 | 0.00 | 0.00 | 94 | 1009.5 |
| 20260505112021 | 49 | 0 | 1.0 | 3.0 | 0.00 | 0.00 | 0.00 | 95 | 1009.3 |
| 20260505111553 | 48 | 360 | 1.0 | 3.0 | 0.00 | 0.00 | 0.00 | 96 | 1009.2 |
| 20260505111021 | 47 | 0 | 0.0 | 1.0 | 0.00 | 0.00 | 0.00 | 96 | 1009.2 |
| 20260505110520 | 47 | 0 | 0.0 | 1.0 | 0.00 | 0.00 | 0.00 | 96 | 1009.3 |
| 20260505102024 | 46 | 0 | 0.0 | 0.0 | 0.00 | 0.00 | 0.00 | 95 | 1008.9 |
| 20260505101535 | 46 | 0 | 0.0 | 0.0 | 0.00 | 0.00 | 0.00 | 95 | 1008.7 |
| 20260505101023 | 46 | 0 | 0.0 | 1.0 | 0.00 | 0.00 | 0.00 | 95 | 1008.7 |
| 20260505100521 | 46 | 0 | 0.0 | 1.0 | 0.00 | 0.00 | 0.00 | 94 | 1008.6 |
| 20260505100036 | 46 | 0 | 0.0 | 1.0 | 0.00 | 0.00 | 0.00 | 94 | 1008.5 |
| 20260505095520 | 46 | 0 | 0.0 | 1.0 | 0.00 | 0.00 | 0.00 | 94 | 1008.6 |
| 20260505095021 | 46 | 0 | 0.0 | 1.0 | 0.00 | 0.00 | 0.00 | 94 | 1008.6 |
| 20260505094538 | 46 | 0 | 0.0 | 1.0 | 0.00 | 0.00 | 0.00 | 93 | 1008.6 |
| 20260505094024 | 46 | 0 | 0.0 | 1.0 | 0.00 | 0.00 | 0.00 | 93 | 1008.5 |
| 20260505093521 | 46 | 0 | 0.0 | 1.0 | 0.00 | 0.00 | 0.00 | 93 | 1008.5 |
| 20260505093036 | 47 | 0 | 0.0 | 1.0 | 0.00 | 0.00 | 0.00 | 93 | 1008.5 |
| 20260505092521 | 47 | 0 | 0.0 | 1.0 | 0.00 | 0.00 | 0.00 | 93 | 1008.6 |
| 20260505092021 | 47 | 0 | 0.0 | 1.0 | 0.00 | 0.00 | 0.00 | 92 | 1008.6 |
| 20260505091535 | 47 | 0 | 0.0 | 1.0 | 0.00 | 0.00 | 0.00 | 92 | 1008.7 |
| 20260505091020 | 47 | 360 | 0.0 | 1.0 | 0.00 | 0.00 | 0.00 | 92 | 1008.8 |
| 20260505090523 | 47 | 0 | 0.0 | 1.0 | 0.00 | 0.00 | 0.00 | 92 | 1008.8 |
| 20260505090038 | 47 | 0 | 0.0 | 1.0 | 0.00 | 0.00 | 0.00 | 92 | 1008.9 |
| 20260505085521 | 47 | 0 | 0.0 | 1.0 | 0.00 | 0.00 | 0.00 | 92 | 1008.9 |
| 20260505085021 | 47 | 0 | 0.0 | 1.0 | 0.00 | 0.00 | 0.00 | 92 | 1009.0 |
| 20260505084539 | 48 | 0 | 0.0 | 1.0 | 0.00 | 0.00 | 0.00 | 91 | 1009.0 |
| 20260505084020 | 48 | 0 | 0.0 | 1.0 | 0.00 | 0.00 | 0.00 | 92 | 1009.1 |
| 20260505083520 | 48 | 360 | 0.0 | 2.0 | 0.00 | 0.00 | 0.00 | 92 | 1009.0 |
| 20260505083044 | 47 | 0 | 0.0 | 2.0 | 0.00 | 0.00 | 0.00 | 92 | 1009.0 |
| 20260505082520 | 47 | 360 | 0.0 | 2.0 | 0.00 | 0.00 | 0.00 | 92 | 1009.0 |
| 20260505082021 | 47 | 360 | 0.0 | 1.0 | 0.00 | 0.00 | 0.00 | 91 | 1008.9 |
| 20260505081540 | 47 | 0 | 0.0 | 1.0 | 0.00 | 0.00 | 0.00 | 91 | 1008.9 |
| 20260505081026 | 47 | 0 | 0.0 | 1.0 | 0.00 | 0.00 | 0.00 | 91 | 1009.0 |
| 20260505080521 | 48 | 0 | 0.0 | 1.0 | 0.00 | 0.00 | 0.00 | 91 | 1009.0 |
| 20260505080038 | 48 | 360 | 0.0 | 1.0 | 0.00 | 0.00 | 0.00 | 91 | 1009.1 |
| 20260505075521 | 48 | 0 | 0.0 | 0.0 | 0.00 | 0.00 | 0.00 | 90 | 1009.1 |
| 20260505075018 | 48 | 0 | 0.0 | 0.0 | 0.00 | 0.00 | 0.00 | 90 | 1009.0 |
| 20260505074543 | 48 | 0 | 0.0 | 1.0 | 0.00 | 0.00 | 0.00 | 90 | 1009.0 |
| 20260505074018 | 48 | 0 | 0.0 | 1.0 | 0.00 | 0.00 | 0.00 | 90 | 1009.0 |
| 20260505073518 | 48 | 0 | 0.0 | 1.0 | 0.00 | 0.00 | 0.00 | 89 | 1009.0 |
| 20260505073040 | 48 | 0 | 0.0 | 1.0 | 0.00 | 0.00 | 0.00 | 89 | 1008.9 |
| 20260505072521 | 48 | 0 | 0.0 | 1.0 | 0.00 | 0.00 | 0.00 | 89 | 1008.9 |
| 20260505072020 | 48 | 0 | 0.0 | 0.0 | 0.00 | 0.00 | 0.00 | 89 | 1008.9 |
| 20260505071538 | 48 | 0 | 0.0 | 0.0 | 0.00 | 0.00 | 0.00 | 88 | 1009.0 |
| 20260505071021 | 49 | 0 | 0.0 | 0.0 | 0.00 | 0.00 | 0.00 | 88 | 1008.9 |
| 20260505070521 | 49 | 0 | 0.0 | 1.0 | 0.00 | 0.00 | 0.00 | 87 | 1009.0 |
| 20260505070055 | 49 | 0 | 0.0 | 1.0 | 0.00 | 0.00 | 0.00 | 87 | 1009.0 |
| 20260505065520 | 49 | 0 | 0.0 | 1.0 | 0.00 | 0.00 | 0.00 | 87 | 1009.1 |
| 20260505065020 | 49 | 0 | 0.0 | 0.0 | 0.00 | 0.00 | 0.00 | 87 | 1008.9 |
| 20260505064551 | 49 | 0 | 0.0 | 1.0 | 0.00 | 0.00 | 0.00 | 86 | 1009.0 |
| 20260505064020 | 49 | 0 | 0.0 | 1.0 | 0.00 | 0.00 | 0.00 | 86 | 1009.0 |
| 20260505063521 | 49 | 0 | 0.0 | 1.0 | 0.00 | 0.00 | 0.00 | 86 | 1009.1 |
| 20260505063032 | 50 | 0 | 0.0 | 1.0 | 0.00 | 0.00 | 0.00 | 85 | 1009.2 |
| 20260505062521 | 50 | 0 | 0.0 | 0.0 | 0.00 | 0.00 | 0.00 | 85 | 1009.2 |
| 20260505062017 | 50 | 0 | 0.0 | 1.0 | 0.00 | 0.00 | 0.00 | 84 | 1009.2 |
| 20260505061541 | 50 | 0 | 0.0 | 1.0 | 0.00 | 0.00 | 0.00 | 84 | 1009.2 |
| 20260505061017 | 50 | 0 | 0.0 | 1.0 | 0.00 | 0.00 | 0.00 | 83 | 1009.3 |
| 20260505060520 | 50 | 0 | 0.0 | 1.0 | 0.00 | 0.00 | 0.00 | 83 | 1009.4 |
| 20260505060039 | 51 | 0 | 0.0 | 1.0 | 0.00 | 0.00 | 0.00 | 82 | 1009.4 |
| 20260505055520 | 51 | 0 | 0.0 | 1.0 | 0.00 | 0.00 | 0.00 | 82 | 1009.5 |
| 20260505055020 | 51 | 0 | 0.0 | 1.0 | 0.00 | 0.00 | 0.00 | 82 | 1009.5 |
| 20260505054538 | 51 | 0 | 0.0 | 1.0 | 0.00 | 0.00 | 0.00 | 81 | 1009.5 |
| 20260505054022 | 52 | 0 | 0.0 | 1.0 | 0.00 | 0.00 | 0.00 | 81 | 1009.5 |
| 20260505053522 | 52 | 0 | 0.0 | 1.0 | 0.00 | 0.00 | 0.00 | 80 | 1009.5 |
| 20260505053035 | 52 | 0 | 0.0 | 1.0 | 0.00 | 0.00 | 0.00 | 80 | 1009.5 |
| 20260505052521 | 52 | 0 | 0.0 | 2.0 | 0.00 | 0.00 | 0.00 | 79 | 1009.5 |
| 20260505052021 | 52 | 360 | 0.0 | 4.0 | 0.00 | 0.00 | 0.00 | 79 | 1009.5 |
| 20260505051539 | 52 | 360 | 1.0 | 4.0 | 0.00 | 0.00 | 0.00 | 79 | 1009.5 |
| 20260505051022 | 52 | 0 | 0.0 | 3.0 | 0.00 | 0.00 | 0.00 | 79 | 1009.4 |
| 20260505050523 | 52 | 0 | 0.0 | 3.0 | 0.00 | 0.00 | 0.00 | 78 | 1009.5 |
| 20260505041536 | 54 | 0 | 0.0 | 2.0 | 0.00 | 0.00 | 0.00 | 73 | 1009.5 |
| 20260505041023 | 55 | 360 | 0.0 | 3.0 | 0.00 | 0.00 | 0.00 | 73 | 1009.5 |
| 20260505040521 | 55 | 360 | 0.0 | 3.0 | 0.00 | 0.00 | 0.00 | 72 | 1009.4 |
| 20260505040037 | 55 | 360 | 0.0 | 4.0 | 0.00 | 0.00 | 0.00 | 72 | 1009.4 |
| 20260505035521 | 55 | 0 | 0.0 | 4.0 | 0.00 | 0.00 | 0.00 | 71 | 1009.4 |
| 20260505035021 | 55 | 360 | 0.0 | 4.0 | 0.00 | 0.00 | 0.00 | 71 | 1009.3 |
| 20260505034537 | 55 | 360 | 0.0 | 3.0 | 0.00 | 0.00 | 0.00 | 70 | 1009.3 |
| 20260505034026 | 56 | 360 | 1.0 | 6.0 | 0.00 | 0.00 | 0.00 | 70 | 1009.2 |
| 20260505033524 | 56 | 360 | 0.0 | 6.0 | 0.00 | 0.00 | 0.00 | 70 | 1009.1 |
| 20260505033038 | 56 | 360 | 1.0 | 5.0 | 0.00 | 0.00 | 0.00 | 69 | 1009.1 |
| 20260505032520 | 56 | 0 | 0.0 | 3.0 | 0.00 | 0.00 | 0.00 | 69 | 1009.1 |
| 20260505032023 | 56 | 360 | 0.0 | 3.0 | 0.00 | 0.00 | 0.00 | 69 | 1009.0 |
| 20260505031537 | 57 | 360 | 0.0 | 5.0 | 0.00 | 0.00 | 0.00 | 68 | 1009.0 |
| 20260505031021 | 57 | 360 | 0.0 | 5.0 | 0.00 | 0.00 | 0.00 | 68 | 1008.9 |
| 20260505030520 | 57 | 0 | 2.0 | 5.0 | 0.00 | 0.00 | 0.00 | 67 | 1009.0 |
| 20260505030037 | 57 | 0 | 1.0 | 4.0 | 0.00 | 0.00 | 0.00 | 66 | 1008.9 |
| 20260505025521 | 57 | 0 | 1.0 | 4.0 | 0.00 | 0.00 | 0.00 | 66 | 1008.9 |
| 20260505025021 | 58 | 360 | 1.0 | 5.0 | 0.00 | 0.00 | 0.00 | 65 | 1008.9 |
| 20260505024543 | 58 | 360 | 0.0 | 5.0 | 0.00 | 0.00 | 0.00 | 65 | 1008.8 |